Weather in Mishkino

Russia / Republic of Bashkortostan     55°32′02″N   55°57′40″E
temp.,
°C
wind,
m/s
gust,
m/s
humid.,
%
clouds,
%
prec.,
mm/h
press.,
hPa
HPBL,
m
3 march, wed
wed323:00−6s71395100 2.5 1000608
02:00−4ssw51097100 2.0 999458
05:00−3sw5997100 2.8 999399
08:00−5wsw489699 0.3 999320
11:00−3sw479599 0.7 1000518
14:00−1sw4694100 0.4 999599
17:00−2wsw5795100 0.8 999547
20:00−4sw4997100 0.3 999303
4 march, thu
thu423:00−4sw4997100 0.6 1000304
02:00−5wnw51096100 0.6 999500
05:00−11w4996100 1.0 1001257
08:00−13wsw3797100 0.1 1002198
11:00−10sw4795100 0.2 1003321
14:00−7ssw71194100 0.8 1001601
17:00−5ssw71195100 2.1 999737
20:00−5ssw81395100 1.6 997872
5 march, fri
fri523:00−4ssw81694100 4.3 994873
02:00−4wsw81685100 1.8 993775
05:00−5w8159199 1.9 997678
08:00−6wsw51194100 0.1 999593
11:00−5wsw4793100 0.3 1001600
14:00−4sw2394100 0.6 1000376
17:00−3nw2295100 1.8 1001284
20:00−5nnw4796100 0.6 1001280
6 march, sat
sat623:00−9nnw61091100 0.8 1004419
02:00−17nw349733 0.0 100984
05:00−20w229917 0.0 101320
08:00−20sw2310047 0.0 101430
11:00−14ssw469571 0.1 1014249
14:00−10ssw469294 0.1 1013357
17:00−9s469190 0.1 1011333
20:00−13sse3394100 0.0 101047
7 march, sun
sun723:00−15se1286100 0.0 100820
02:00−18ssw118621 0.0 100620
05:00−18wsw119127 0.0 100620
08:00−16wsw2297100 0.1 100625
11:00−13w5794100 0.3 1007417
14:00−14w5791100 0.1 1009497
17:00−15wsw479099 0.1 1010569
20:00−19ssw339763 0.0 101130